Simultaneous Nadir Overpasses (SNOs) Predictions

Prediction of SNOs between FY3D and TERRA Satellite Orbit:

Table of predicted SNOs for the next 14.0 days since TLE Epoch: 12/23/2023
Index Date (FY3D) Time (FY3D) Lat,Lon (FY3D) SZA (FY3D ) Date (TERRA) Time (TERRA) Lat,Lon (TERRA) SZA (TERRA ) Distance(km) Time Diff (sec)
1 12/23/2023 05:37:09 74.68, 95.70 98.03 12/23/2023 05:37:54 74.68, 95.75 98.03 1.58 45
2 12/23/2023 06:27:52 -74.62, -96.82 82.04 12/23/2023 06:27:17 -74.63, -96.71 82.03 3.15 35
3 12/25/2023 17:41:02 -74.68, 94.78 82.02 12/25/2023 17:41:17 -74.67, 94.87 82.03 2.68 15
4 12/25/2023 18:31:47 74.59, -97.68 97.89 12/25/2023 18:30:40 74.59, -97.68 97.89 0.42 67
5 12/28/2023 04:54:11 -74.70, -73.52 82.10 12/28/2023 04:55:17 -74.69, -73.63 82.11 3.32 66
6 12/28/2023 05:44:57 74.66, 93.88 97.87 12/28/2023 05:44:39 74.65, 93.94 97.86 2.45 18
7 12/30/2023 16:58:06 74.70, -74.46 97.77 12/30/2023 16:58:38 74.68, -74.52 97.74 2.77 32
8 12/30/2023 17:48:49 -74.62, 93.06 82.32 12/30/2023 17:48:01 -74.64, 93.04 82.30 1.72 48
9 01/02/2024 04:11:22 75.07, 116.22 97.96 01/02/2024 04:12:31 74.98, 117.71 97.86 44.15 69
10 01/02/2024 05:01:59 -74.71, -75.41 82.42 01/02/2024 05:01:59 -74.69, -75.37 82.44 2.65 0
11 01/02/2024 05:52:35 74.25, 93.13 97.12 01/02/2024 05:51:26 74.33, 91.44 97.20 51.41 69
12 01/04/2024 16:15:07 -74.75, 116.22 82.61 01/04/2024 16:15:55 -74.76, 116.28 82.61 1.90 48
13 01/04/2024 17:05:52 74.69, -76.30 97.33 01/04/2024 17:05:17 74.70, -76.19 97.34 3.57 35



Historial Predications of SNOs between FY3D and TERRA
